sat.trackr.live / text

‹ back to catalog

STARLINK-31405

NORAD 59248 · 2024-049T

PAYLOAD ACTIVE UNKNOWN

§ Identity

Operator
Country
US
Launch date
2024-03-16
Launch site
AFETR
Launch vehicle
Mass (kg)
RCS (m²)

Purposes: comms

External: N2YO · Heavens-Above · Gunter

§ Orbital elements

Epoch: 2026-05-25T04:29:57.772608Z

Period
94.27 min
Inclination
43.0048°
Eccentricity
0.0001319
Mean motion
15.27588818 rev/d
Perigee alt
482.1 km
Apogee alt
483.9 km
Semi-major
6,861.2 km
B*
1.6493e-6
RAAN
71.6666°
Arg perigee
263.0544°
Mean anomaly
97.0157°
Rev number
12,409

§ Raw data

STARLINK-314051 59248U 24049T   26145.18747422 -.00000217  00000+0  16493-5 0  99982 59248  43.0048  71.6666 0001319 263.0544  97.0157 15.27588818124097

JSON: /api/v1/satellites/59248 · /tle

For live sub-satellite position, see the globe view (requires WebGL).

§ Visibility from observer

Set your observer location to see the next 7 days of passes ≥ 10°. The values pass through the URL so the page stays shareable.

No JS? Fill the form by hand. The geolocation button needs JavaScript.